Regional Weather Roundup
Issued by NWS

Home | Current Version | Previous Version | Text Only | Print | Product List | Glossary On
Versions: 1 2 3 4 5 6 7 8 9 10 11 12 13 14 15 16 17 18 19 20 21 22 23 24 25 26 27 28 29 30 31 32 33 34 35 36 37 38 39 40 41 42 43 44 45 46 47 48 49 50
000
ASUS44 KLIX 301212
RWRLA
LOUISIANA WEATHER ROUNDUP
NATIONAL WEATHER SERVICE NEW ORLEANS LA
700 AM CDT THU JUL 30 2015

NOTE: "FAIR" INDICATES FEW OR NO CLOUDS BELOW 12,000 FEET WITH NO
      SIGNIFICANT WEATHER AND/OR OBSTRUCTIONS TO VISIBILITY.
      SKY/WX - SKY CONDITION AND SIGNIFICANT WEATHER.
      TMP - AIR TEMPERATURE.    DP   - DEWPOINT TEMPERATURE.
      RH  - RELATIVE HUMIDITY.  PRES - PRESSURE.
      HX  - HEAT INDEX.         WCI  - WIND CHILL INDEX.

*  THESE STATIONS ARE NOT NWS OR FAA STATIONS AND ARE NOT UNDER
   NWS QUALITY CONTROL.

LAZ040-048-061>063-065-066-069-301300-
SOUTHEAST LOUISIANA

CITY           SKY/WX    TMP DP  RH WIND       PRES   REMARKS
N.O. AUDUBON   NOT AVBL
N.O. INTL ARPT MOCLDY    81  76  84 NW3       30.00R
6HR MIN TEMP:  78; 6HR MAX TEMP:  81;

N.O. LAKEFRONT PTCLDY    82  76  81 NW10      30.00R
6HR MIN TEMP:  80; 6HR MAX TEMP:  83;

N.O. DOWNTOWN* FAIR      81  75  83 N6        30.01R
6HR MIN TEMP:  79; 6HR MAX TEMP:  81;

RESERVE*         N/A     77  75  93 CALM      30.01R
6HR MIN TEMP:  77; 6HR MAX TEMP:  79;

SLIDELL        MOCLDY    76  76 100 CALM      30.00R
6HR MIN TEMP:  75; 6HR MAX TEMP:  76;

BATON ROUGE    CLEAR     78  75  90 CALM      30.01R
6HR MIN TEMP:  77; 6HR MAX TEMP:  79;

BOOTHVILLE     MOCLDY    83  78  85 NW6       30.00R
6HR MIN TEMP:  81; 6HR MAX TEMP:  84;

BELLE CHASSE   MOCLDY    76  75  97 CALM      30.00R FOG
6HR MIN TEMP:  76; 6HR MAX TEMP:  77;

BOGALUSA*        N/A     77  73  87 CALM      30.02R
6HR MIN TEMP:  75; 6HR MAX TEMP:  77; 6HR PCP:  0.01;

GALLIANO*      NOT AVBL
NEW ROADS*     FAIR     N/A N/A N/A CALM      30.02R
GONZALES*      FAIR      76  76 100 CALM      30.00R FOG
6HR MIN TEMP:  76; 6HR MAX TEMP:  79;

HAMMOND*       PTCLDY    75  73  94 CALM      30.02R
HOUMA*         PTCLDY    79  75  89 N3        30.01R
PORT FOURCHON* SUNNY     82  73  74 N6        30.01R

$$

LAZ041-044-053-054-301300-
SOUTHWEST LOUISIANA

CITY           SKY/WX    TMP DP  RH WIND       PRES   REMARKS
LAKE CHARLES   MOCLDY    81  75  82 NW3       30.01R
6HR MIN TEMP:  81; 6HR MAX TEMP:  84;

LAFAYETTE      PTCLDY    81  74  79 W9        30.02R
6HR MIN TEMP:  79; 6HR MAX TEMP:  81; 6HR PCP: TRACE;

PATTERSON      CLOUDY    79  75  89 CALM      30.03R
6HR MIN TEMP:  77; 6HR MAX TEMP:  79;

SALT POINT       N/A     80  77  90 N5        30.00R
6HR MIN TEMP:  79; 6HR MAX TEMP:  80;

NEW IBERIA     MOCLDY    80  76  87 W3        30.02R FOG
6HR MIN TEMP:  79; 6HR MAX TEMP:  80;

CHENAULT AIRPK NOT AVBL

$$

LAZ027-028-301300-
CENTRAL LOUISIANA

CITY           SKY/WX    TMP DP  RH WIND       PRES   REMARKS
FORT POLK      PTCLDY    77  74  91 N5        30.02R
6HR MIN TEMP:  76; 6HR MAX TEMP:  83;

ALEXANDRIA INT   N/A    N/A N/A N/A MISG      30.01R
ALEXANDRIA     CLEAR     76  72  87 CALM      30.02R FOG
6HR MIN TEMP:  76; 6HR MAX TEMP:  80;


$$

LAZ001-002-301300-
NORTHWEST LOUISIANA

CITY           SKY/WX    TMP DP  RH WIND       PRES   REMARKS
SHREVEPORT     PTCLDY    82  73  74 NW3       30.03R
6HR MIN TEMP:  80; 6HR MAX TEMP:  84;

BARKSDALE AFB  CLEAR     79  76  90 CALM      30.03R
6HR MIN TEMP:  78; 6HR MAX TEMP:  83;

DTN SHREVEPORT CLEAR     81  76  84 CALM      30.04R
6HR MIN TEMP:  79; 6HR MAX TEMP:  84;


$$

LAZ014-016-301300-
NORTHEAST LOUISIANA

CITY           SKY/WX    TMP DP  RH WIND       PRES   REMARKS
MONROE         CLEAR     78  76  93 CALM      30.03R
6HR MIN TEMP:  77; 6HR MAX TEMP:  81;

TALLULAH       CLEAR     76  74  93 CALM      30.02R FOG
6HR MIN TEMP:  75; 6HR MAX TEMP:  81;


$$



USA.gov is the U.S. government's official web portal to all federal, state and local government web resources and services.